Погода в Авиньоне

Франция     43°56′36″N   4°48′55″E
темп.,
°C
ветер,
м/с
пор.,
м/с
влажн.,
%
обл.,
%
осадки,
мм/ч
давл.,
гПа
погр.,
м
7 мая, пт
пт723:00+17з3859100 0.0 1015388
02:00+15юз2574100 0.0 1014207
05:00+15з2573100 0.0 1014180
08:00+15зсз256975 0.0 1015299
11:00+17ссз445999 0.0 10161092
14:00+20сз69495 0.0 10161531
17:00+20с8104465 0.0 10151495
20:00+17ссз6115494 0.0 1015523
8 мая, сб
сб823:00+15ссз511505 0.0 1017372
02:00+13ссз511597 0.0 1017321
05:00+11сз356681 0.0 1018139
08:00+12с3565100 0.0 1018193
11:00+18с22455 0.0 1018515
14:00+23ююв22365 0.0 10171053
17:00+24ююз664293 0.0 10151308
20:00+19ю68585 0.0 1016511
9 мая, вс
вс923:00+15ю396973 0.0 1017283
02:00+13вюв01745 0.0 101646
05:00+12с017882 0.0 101517
08:00+14ююв17655 0.0 1015279
11:00+21юв71145100 0.0 10131230
14:00+26ююв91236100 0.0 10112029
17:00+25юв9143699 0.0 10082012
20:00+21юв101745100 0.0 10081250
10 мая, пн
пн1023:00+19юв101755100 0.3 10091105
02:00+17ююв8167297 1.5 1009783
05:00+17юв71672100 1.1 1009737
08:00+15ююв61487100 5.4 1010713
11:00+16ююв101888100 6.8 10101039
14:00+16ююв91689100 9.1 10101252
17:00+16ююв81486100 3.6 10091078
20:00+16ю8138620 7.3 1010842
11 мая, вт
вт1123:00+14ююв514925 2.4 1010513
02:00+14ююв714916 6.0 1009623
05:00+14ююв7148493 1.2 1008571
08:00+15юв61285100 4.8 1007620
11:00+17ююв81070100 2.8 10071184
14:00+18ююв6862100 4.2 10061468
17:00+16ссз897095 3.6 1007860
20:00+12ссз5981100 4.4 1010732